| time (UTC) | temp F | wind direction | speed MPH | gust MPH | rain 1hr in | rain 24hr in | rain mn in | humidity % | barometer mb |
| 20260510094551 | 74 | 121 | 3.0 | 5.0 | 0.00 | 0.00 | 0.00 | 21 | 1018.0 |
| 20260510093048 | 75 | 95 | 1.0 | 9.0 | 0.00 | 0.00 | 0.00 | 20 | 1018.0 |
| 20260510091547 | 76 | 99 | 8.0 | 12.0 | 0.00 | 0.00 | 0.00 | 19 | 1017.7 |
| 20260510090046 | 77 | 97 | 7.0 | 17.0 | 0.00 | 0.00 | 0.00 | 19 | 1017.6 |
| 20260510084557 | 78 | 122 | 5.0 | 12.0 | 0.00 | 0.00 | 0.00 | 18 | 1017.3 |
| 20260510083057 | 78 | 106 | 12.0 | 16.0 | 0.00 | 0.00 | 0.00 | 17 | 1017.1 |
| 20260510081550 | 78 | 118 | 8.0 | 16.0 | 0.00 | 0.00 | 0.00 | 17 | 1017.1 |
| 20260510080048 | 79 | 112 | 10.0 | 23.0 | 0.00 | 0.00 | 0.00 | 17 | 1017.1 |
| 20260510074601 | 80 | 85 | 5.0 | 13.0 | 0.00 | 0.00 | 0.00 | 17 | 1017.2 |
| 20260510073048 | 80 | 134 | 7.0 | 18.0 | 0.00 | 0.00 | 0.00 | 17 | 1017.0 |
| 20260510071558 | 81 | 109 | 5.0 | 14.0 | 0.00 | 0.00 | 0.00 | 17 | 1017.1 |
| 20260510070053 | 80 | 93 | 9.0 | 19.0 | 0.00 | 0.00 | 0.00 | 16 | 1017.2 |
| 20260510064606 | 80 | 70 | 9.0 | 19.0 | 0.00 | 0.00 | 0.00 | 17 | 1017.2 |
| 20260510063100 | 80 | 129 | 8.0 | 17.0 | 0.00 | 0.00 | 0.00 | 17 | 1017.2 |
| 20260510061552 | 81 | 152 | 9.0 | 17.0 | 0.00 | 0.00 | 0.00 | 17 | 1017.3 |
| 20260510060055 | 81 | 92 | 7.0 | 20.0 | 0.00 | 0.00 | 0.00 | 17 | 1017.2 |
| 20260510054546 | 80 | 78 | 6.0 | 13.0 | 0.00 | 0.00 | 0.00 | 18 | 1017.3 |
| 20260510053051 | 79 | 124 | 4.0 | 16.0 | 0.00 | 0.00 | 0.00 | 18 | 1017.5 |
| 20260510051558 | 79 | 86 | 8.0 | 12.0 | 0.00 | 0.00 | 0.00 | 18 | 1017.6 |
| 20260510050052 | 80 | 130 | 4.0 | 12.0 | 0.00 | 0.00 | 0.00 | 18 | 1017.8 |
| 20260510044546 | 80 | 75 | 5.0 | 12.0 | 0.00 | 0.00 | 0.00 | 18 | 1018.0 |
| 20260510043050 | 79 | 104 | 9.0 | 15.0 | 0.00 | 0.00 | 0.00 | 19 | 1018.3 |
| 20260510041607 | 79 | 109 | 6.0 | 19.0 | 0.00 | 0.00 | 0.00 | 18 | 1018.5 |
| 20260510040054 | 79 | 102 | 7.0 | 17.0 | 0.00 | 0.00 | 0.00 | 19 | 1019.0 |
| 20260510034546 | 79 | 71 | 8.0 | 17.0 | 0.00 | 0.00 | 0.00 | 19 | 1019.2 |
| 20260510033050 | 78 | 129 | 10.0 | 16.0 | 0.00 | 0.00 | 0.00 | 19 | 1019.5 |
| 20260510031546 | 78 | 74 | 10.0 | 17.0 | 0.00 | 0.00 | 0.00 | 19 | 1019.7 |
| 20260510030051 | 77 | 66 | 11.0 | 17.0 | 0.00 | 0.00 | 0.00 | 19 | 1020.0 |
| 20260510024605 | 77 | 98 | 9.0 | 17.0 | 0.00 | 0.00 | 0.00 | 19 | 1020.1 |
| 20260510023050 | 75 | 135 | 9.0 | 18.0 | 0.00 | 0.00 | 0.00 | 20 | 1020.2 |
| 20260510021546 | 75 | 76 | 10.0 | 21.0 | 0.00 | 0.00 | 0.00 | 20 | 1020.5 |
| 20260510020053 | 75 | 92 | 10.0 | 17.0 | 0.00 | 0.00 | 0.00 | 20 | 1020.6 |
| 20260510014551 | 73 | 122 | 9.0 | 15.0 | 0.00 | 0.00 | 0.00 | 21 | 1021.0 |
| 20260510013102 | 72 | 112 | 7.0 | 14.0 | 0.00 | 0.00 | 0.00 | 23 | 1020.8 |
| 20260510011550 | 71 | 110 | 8.0 | 19.0 | 0.00 | 0.00 | 0.00 | 24 | 1020.8 |
| 20260510010100 | 71 | 95 | 10.0 | 18.0 | 0.00 | 0.00 | 0.00 | 24 | 1020.8 |
| 20260510004557 | 69 | 110 | 9.0 | 16.0 | 0.00 | 0.00 | 0.00 | 25 | 1020.7 |
| 20260510003055 | 69 | 118 | 9.0 | 17.0 | 0.00 | 0.00 | 0.00 | 26 | 1020.5 |
| 20260510001558 | 66 | 124 | 9.0 | 17.0 | 0.00 | 0.00 | 0.00 | 27 | 1020.6 |
| 20260510000132 | 64 | 92 | 8.0 | 17.0 | 0.00 | 0.00 | 0.00 | 28 | 1020.5 |
| 20260509153049 | 64 | 92 | 5.0 | 11.0 | 0.00 | 0.00 | 0.00 | 32 | 1019.2 |
| 20260509151617 | 64 | 137 | 5.0 | 10.0 | 0.00 | 0.00 | 0.00 | 32 | 1019.3 |
| 20260509150055 | 63 | 131 | 5.0 | 10.0 | 0.00 | 0.00 | 0.00 | 33 | 1019.3 |
| 20260509144558 | 64 | 134 | 4.0 | 9.0 | 0.00 | 0.00 | 0.00 | 33 | 1019.3 |
| 20260509143049 | 64 | 133 | 3.0 | 7.0 | 0.00 | 0.00 | 0.00 | 33 | 1019.4 |
| 20260509141608 | 65 | 118 | 3.0 | 9.0 | 0.00 | 0.00 | 0.00 | 32 | 1019.5 |
| 20260509140132 | 65 | 106 | 3.0 | 9.0 | 0.00 | 0.00 | 0.00 | 32 | 1019.5 |
| 20260509134620 | 65 | 107 | 2.0 | 6.0 | 0.00 | 0.00 | 0.00 | 32 | 1019.6 |
| 20260509133050 | 65 | 149 | 3.0 | 6.0 | 0.00 | 0.00 | 0.00 | 32 | 1019.7 |
| 20260509131637 | 66 | 141 | 4.0 | 7.0 | 0.00 | 0.00 | 0.00 | 32 | 1019.7 |
| 20260509124549 | 65 | 122 | 2.0 | 5.0 | 0.00 | 0.00 | 0.00 | 32 | 1019.8 |
| 20260509123114 | 66 | 118 | 2.0 | 8.0 | 0.00 | 0.00 | 0.00 | 32 | 1019.7 |
| 20260509121552 | 67 | 146 | 3.0 | 6.0 | 0.00 | 0.00 | 0.00 | 31 | 1019.6 |
| 20260509120058 | 67 | 108 | 3.0 | 7.0 | 0.00 | 0.00 | 0.00 | 31 | 1019.5 |
| 20260509114601 | 67 | 138 | 3.0 | 8.0 | 0.00 | 0.00 | 0.00 | 31 | 1019.2 |
| 20260509113054 | 68 | 122 | 2.0 | 6.0 | 0.00 | 0.00 | 0.00 | 31 | 1019.0 |
| 20260509111549 | 69 | 151 | 5.0 | 12.0 | 0.00 | 0.00 | 0.00 | 30 | 1018.8 |
| 20260509110052 | 68 | 124 | 2.0 | 4.0 | 0.00 | 0.00 | 0.00 | 30 | 1019.0 |
| 20260509104556 | 69 | 135 | 1.0 | 7.0 | 0.00 | 0.00 | 0.00 | 29 | 1019.2 |
| 20260509103047 | 70 | 131 | 1.0 | 3.0 | 0.00 | 0.00 | 0.00 | 29 | 1018.9 |
| 20260509101548 | 71 | 132 | 3.0 | 5.0 | 0.00 | 0.00 | 0.00 | 28 | 1018.6 |
| 20260509100047 | 72 | 145 | 2.0 | 8.0 | 0.00 | 0.00 | 0.00 | 27 | 1018.6 |